Date String (YYYY-MM-DD hh:mm:ss) UTC,Instrument flags,absolute air pressure of the measurement (hPa),sample flow rate (lpm),inlet stack bypass flow (lpm),air temperature of the measurement (°C),ambient temperature measured by the external sensor (°C),aerosol sample conditioner tube jacket temperature (°C),OPC LED temperature (°C),internal box temperature (°C),relative humidity of the measurement (%),span deviation,mass concentration of particles derived from Lorenz-Mie calculation of OPC scattering (μg/m³),mass concentration of particles derived from Lorenz-Mie calculation of OPC scattering (μg/m³),mass concentration of particles derived from Lorenz-Mie calculation of OPC scattering (μg/m³)
DateTimeUTC,F1_M11,P_M11,Q1_M11,Q2_M11,T1_M11,T2_M11,T3_M11,T4_M11,T5_M11,U1_M11,ZSPAN_M11,X0_M11,X2_M11,X1_M11
2024-05-07 19:00:00,SystemResetWarning,0816.2,4.99,000.00,022.6,022.0,000.0,030.8,024.3,011.3,0000.0,0003.92,0001.83,0001.05
2024-05-07 19:01:00,SystemResetWarning,0816.2,4.99,000.00,022.6,022.0,000.0,030.8,024.4,011.0,0000.0,0004.16,0001.81,0001.05
2024-05-07 19:02:00,SystemResetWarning,0816.1,4.99,000.00,022.7,022.1,000.0,030.8,024.4,010.7,0000.0,0004.41,0001.76,0001.05
2024-05-07 19:03:00,SystemResetWarning,0816.1,5.01,000.00,022.7,022.1,000.0,030.8,024.4,010.6,0000.0,0003.91,0001.68,0001.04
2024-05-07 19:04:00,SystemResetWarning,0816.2,5.01,000.00,022.7,022.1,000.0,030.8,024.4,011.1,0000.0,0003.76,0001.66,0001.04
2024-05-07 19:05:00,SystemResetWarning,0816.2,5.01,000.00,022.7,022.1,000.0,030.8,024.4,011.3,0000.0,0003.78,0001.68,0001.04
2024-05-07 19:06:00,SystemResetWarning,0816.4,4.99,000.00,022.7,022.1,000.0,030.8,024.4,011.2,0000.0,0003.83,0001.71,0001.03
2024-05-07 19:07:00,SystemResetWarning,0816.4,4.99,000.00,022.7,022.1,000.0,030.8,024.5,011.6,0000.0,0003.76,0001.70,0001.03
2024-05-07 19:08:00,SystemResetWarning,0816.3,5.00,000.00,022.8,022.2,000.0,030.8,024.5,011.8,0000.0,0004.14,0001.70,0001.02
2024-05-07 19:09:00,SystemResetWarning,0816.3,5.01,000.00,022.8,022.2,000.0,030.9,024.5,011.7,0000.0,0004.44,0001.75,0001.02
2024-05-07 19:10:00,SystemResetWarning,0816.3,5.00,000.00,022.8,022.2,000.0,030.9,024.5,011.1,0000.0,0004.56,0001.76,0001.02
2024-05-07 19:11:00,SystemResetWarning,0816.3,4.98,000.00,022.8,022.2,000.0,030.9,024.5,011.3,0000.0,0004.85,0001.81,0001.02
2024-05-07 19:12:00,SystemResetWarning,0816.4,5.01,000.00,022.8,022.2,000.0,030.9,024.5,011.2,0000.0,0004.78,0001.84,0001.01
2024-05-07 19:13:00,SystemResetWarning,0816.6,5.01,000.00,022.8,022.2,000.0,030.9,024.5,011.5,0000.0,0005.38,0001.84,0001.00
2024-05-07 19:14:00,SystemResetWarning,0816.6,5.01,000.00,022.8,022.2,000.0,030.9,024.5,012.0,0000.0,0006.51,0001.89,0001.01
2024-05-07 19:15:00,SystemResetWarning,0816.6,4.99,000.00,022.8,022.2,000.0,030.9,024.5,011.2,0000.0,0006.74,0001.88,0001.00
2024-05-07 19:16:00,SystemResetWarning,0816.7,5.00,000.00,022.9,022.2,000.0,030.9,024.5,011.0,0000.0,0006.75,0001.88,0001.00
2024-05-07 19:17:00,SystemResetWarning,0816.6,5.01,000.00,022.9,022.3,000.0,030.9,024.6,011.5,0000.0,0006.93,0001.90,0001.01
2024-05-07 19:18:00,SystemResetWarning,0816.6,5.01,000.00,022.9,022.3,000.0,031.0,024.6,011.5,0000.0,0007.78,0001.91,0001.01
2024-05-07 19:19:00,SystemResetWarning,0816.5,5.00,000.00,022.9,022.3,000.0,031.0,024.6,011.3,0000.0,0007.62,0001.92,0001.01
2024-05-07 19:20:00,SystemResetWarning,0816.6,5.00,000.00,022.9,022.3,000.0,031.0,024.6,011.5,0000.0,0007.48,0001.89,0001.03
2024-05-07 19:21:00,SystemResetWarning,0816.7,5.00,000.00,022.9,022.3,000.0,031.0,024.6,011.6,0000.0,0007.43,0001.90,0001.03
2024-05-07 19:22:00,SystemResetWarning,0816.6,5.00,000.00,022.9,022.3,000.0,031.0,024.6,011.6,0000.0,0007.34,0001.89,0001.04
2024-05-07 19:23:00,SystemResetWarning,0816.7,5.00,000.00,022.9,022.3,000.0,031.0,024.7,011.5,0000.0,0007.23,0001.87,0001.04
2024-05-07 19:24:00,SystemResetWarning,0816.7,5.00,000.00,022.9,022.4,000.0,031.0,024.7,011.5,0000.0,0006.97,0001.90,0001.04
2024-05-07 19:25:00,SystemResetWarning,0816.8,5.00,000.00,023.0,022.4,000.0,031.0,024.7,011.5,0000.0,0005.32,0001.95,0001.05
2024-05-07 19:26:00,SystemResetWarning,0816.8,5.00,000.00,023.0,022.4,000.0,031.0,024.7,011.7,0000.0,0005.30,0001.97,0001.06
2024-05-07 19:27:00,SystemResetWarning,0816.7,5.00,000.00,023.0,022.4,000.0,031.0,024.7,011.7,0000.0,0005.35,0002.01,0001.06
2024-05-07 19:28:00,SystemResetWarning,0816.8,5.00,000.00,023.0,022.4,000.0,031.1,024.7,012.2,0000.0,0005.47,0001.96,0001.06
2024-05-07 19:29:00,SystemResetWarning,0816.7,5.00,000.00,023.0,022.4,000.0,031.1,024.7,012.0,0000.0,0004.99,0001.95,0001.06
2024-05-07 19:30:00,SystemResetWarning,0816.9,5.00,000.00,023.0,022.4,000.0,031.1,024.7,012.3,0000.0,0004.63,0001.98,0001.07
2024-05-07 19:31:00,SystemResetWarning,0816.9,5.00,000.00,023.0,022.4,000.0,031.1,024.7,012.1,0000.0,0004.98,0002.07,0001.07
2024-05-07 19:32:00,SystemResetWarning,0816.9,5.00,000.00,023.0,022.4,000.0,031.1,024.7,011.7,0000.0,0004.92,0002.04,0001.07
2024-05-07 19:33:00,SystemResetWarning,0816.9,5.00,000.00,023.0,022.4,000.0,031.2,024.7,011.3,0000.0,0005.47,0002.05,0001.06
2024-05-07 19:34:00,SystemResetWarning,0816.8,5.00,000.00,023.0,022.4,000.0,031.2,024.7,011.4,0000.0,0005.64,0002.03,0001.05
2024-05-07 19:35:00,SystemResetWarning,0816.8,5.00,000.00,023.0,022.4,000.0,031.2,024.8,011.6,0000.0,0006.26,0001.99,0001.03
2024-05-07 19:36:00,SystemResetWarning,0816.8,5.01,000.00,023.0,022.4,000.0,031.2,024.7,011.3,0000.0,0007.02,0002.00,0001.02
2024-05-07 19:37:00,SystemResetWarning,0816.9,5.00,000.00,023.0,022.4,000.0,031.2,024.7,011.5,0000.0,0006.93,0001.98,0001.01
2024-05-07 19:38:00,SystemResetWarning,0816.9,4.99,000.00,023.0,022.4,000.0,031.2,024.7,011.6,0000.0,0006.90,0001.99,0001.01
2024-05-07 19:39:00,SystemResetWarning,0816.9,4.99,000.00,023.0,022.4,000.0,031.2,024.7,011.9,0000.0,0006.55,0001.97,0000.99
2024-05-07 19:40:00,SystemResetWarning,0816.7,5.00,000.00,023.0,022.4,000.0,031.2,024.8,011.9,0000.0,0006.42,0002.04,0000.97
2024-05-07 19:41:00,SystemResetWarning,0816.9,5.00,000.00,023.1,022.4,000.0,031.2,024.8,011.7,0000.0,0006.37,0001.99,0000.93
2024-05-07 19:42:00,SystemResetWarning,0816.9,5.01,000.00,023.1,022.4,000.0,031.2,024.8,011.9,0000.0,0006.01,0001.90,0000.91
2024-05-07 19:43:00,SystemResetWarning,0816.9,4.99,000.00,023.1,022.4,000.0,031.2,024.8,011.8,0000.0,0006.01,0001.92,0000.91
2024-05-07 19:44:00,SystemResetWarning,0816.9,4.98,000.00,023.1,022.5,000.0,031.2,024.8,011.7,0000.0,0005.47,0001.88,0000.90
2024-05-07 19:45:00,SystemResetWarning,0816.9,5.00,000.00,023.1,022.5,000.0,031.2,024.8,011.8,0000.0,0005.16,0001.89,0000.90
2024-05-07 19:46:00,SystemResetWarning,0817.0,5.01,000.00,023.1,022.5,000.0,031.3,024.8,011.9,0000.0,0004.80,0001.86,0000.90
2024-05-07 19:47:00,SystemResetWarning,0817.1,5.00,000.00,023.1,022.5,000.0,031.3,024.8,012.0,0000.0,0004.19,0001.79,0000.89
2024-05-07 19:48:00,SystemResetWarning,0817.1,4.99,000.00,023.1,022.5,000.0,031.3,024.9,012.1,0000.0,0004.05,0001.74,0000.89
2024-05-07 19:49:00,SystemResetWarning,0817.1,5.00,000.00,023.1,022.5,000.0,031.3,024.9,012.4,0000.0,0003.91,0001.69,0000.88
2024-05-07 19:50:00,SystemResetWarning,0817.1,5.01,000.00,023.2,022.5,000.0,031.3,024.9,011.9,0000.0,0004.22,0001.73,0000.88
2024-05-07 19:51:00,SystemResetWarning,0817.1,5.00,000.00,023.2,022.6,000.0,031.3,024.9,012.4,0000.0,0004.19,0001.64,0000.88
2024-05-07 19:52:00,SystemResetWarning,0817.1,5.00,000.00,023.2,022.6,000.0,031.3,024.9,011.9,0000.0,0003.99,0001.58,0000.89
2024-05-07 19:53:00,SystemResetWarning,0817.1,4.99,000.00,023.2,022.6,000.0,031.3,024.9,012.9,0000.0,0004.36,0001.57,0000.91
2024-05-07 19:54:00,SystemResetWarning,0817.1,4.99,000.00,023.2,022.6,000.0,031.3,024.9,015.7,0000.0,0004.79,0001.55,0000.91
2024-05-07 19:55:00,SystemResetWarning,0817.0,5.01,000.00,023.2,022.6,000.0,031.3,024.9,015.7,0000.0,0004.73,0001.54,0000.91
2024-05-07 19:56:00,SystemResetWarning,0816.9,5.01,000.00,023.3,022.7,000.0,031.3,024.9,015.7,0000.0,0004.83,0001.56,0000.92
2024-05-07 19:57:00,SystemResetWarning,0816.9,5.00,000.00,023.3,022.7,000.0,031.3,025.0,016.1,0000.0,0005.04,0001.63,0000.93
2024-05-07 19:58:00,SystemResetWarning,0816.9,5.00,000.00,023.3,022.7,000.0,031.3,024.9,014.2,0000.0,0004.60,0001.69,0000.93
2024-05-07 19:59:00,SystemResetWarning,0816.9,4.99,000.00,023.3,022.7,000.0,031.3,025.0,015.5,0000.0,0004.74,0001.74,0000.95
